Weather History for KDAA - June, 2013

Change the Weather History Date:

Thursday, June 20, 2013

  Actual Average Record
Temperature  
Mean Temperature 69 °F -  
Max Temperature 79 °F 84 °F 97 °F (2012)
Min Temperature 59 °F 62 °F 53 °F (2008)
Cooling Degree Days 4    
Growing Degree Days 19 (Base 50)    
Moisture  
Dew Point 60 °F    
Average Humidity 81    
Maximum Humidity 100    
Minimum Humidity 54    
Precipitation  
Precipitation 0.00 in - - ()
Sea Level Pressure  
Sea Level Pressure 30.23 in    
Wind  
Wind Speed 1 mph (SSE)    
Max Wind Speed 9 mph    
Max Gust Speed -    
Visibility 9 miles    
Events      
Averages and records for this station are not official NWS values.
T = Trace of Precipitation, MM = Missing Value Source: NWS Daily Summary

Daily Weather History Graph

Daily Weather History Graph

Search for Another Location

Airport or City:

Trip Planner

Search our weather history database for the weather conditions in past years. The results will help you decide how hot, cold, wet, or windy it might be!

Date:

Astronomy

Jun. 20, 2013 Rise Set
Actual Time 5:44 AM EDT 8:36 PM EDT
Civil Twilight 5:12 AM EDT 9:08 PM EDT
Nautical Twilight 4:31 AM EDT 9:48 PM EDT
Astronomical Twilight 3:45 AM EDT 10:35 PM EDT
Moon 5:37 PM EDT (6/20) 3:07 AM EDT (6/20)
Length of Visible Light 15h 56m
Length of Day
14h 52m
Waxing Gibbous, 89% of the Moon is Illuminated
Jun 20
Waxing Gibbous
Jun 23
Full
Jun 30
Last Quarter
Jul 8
New
Jul 15
First Quarter

Hourly Weather History & Observations

Time (EDT) Temp. Dew Point Humidity Pressure Visibility Wind Dir Wind Speed Gust Speed Precip Events Conditions
12:08 AM 60.8 °F 60.8 °F 100% 30.17 in 9.0 mi Calm Calm - N/A   Clear
12:13 AM 62.6 °F 60.8 °F 94% 30.17 in 9.0 mi Calm Calm - N/A   Clear
12:43 AM 60.8 °F 59.0 °F 94% 30.18 in 5.0 mi Calm Calm - N/A   Clear
12:58 AM 60.6 °F 59.0 °F 94% 30.19 in 5.0 mi Calm Calm - N/A   Clear
1:18 AM 60.8 °F 59.0 °F 94% 30.18 in 4.0 mi Calm Calm - N/A   Clear
1:23 AM 60.8 °F 59.0 °F 94% 30.18 in 6.0 mi Calm Calm - N/A   Clear
1:28 AM 60.8 °F 59.0 °F 94% 30.18 in 9.0 mi Calm Calm - N/A   Clear
1:58 AM 60.1 °F 58.3 °F 94% 30.20 in 7.0 mi Calm Calm - N/A   Clear
2:38 AM 60.8 °F 59.0 °F 94% 30.20 in 10.0 mi Calm Calm - N/A   Partly Cloudy
2:58 AM 60.4 °F 58.6 °F 94% 30.21 in 10.0 mi NNW 2.3 mph - N/A   Partly Cloudy
3:08 AM 60.8 °F 59.0 °F 94% 30.19 in 8.0 mi Calm Calm - N/A   Partly Cloudy
3:58 AM 59.2 °F 57.2 °F 93% 30.20 in 6.0 mi Calm Calm - N/A   Partly Cloudy
4:08 AM 59.0 °F 57.2 °F 94% 30.20 in 8.0 mi Calm Calm - N/A   Mostly Cloudy
4:13 AM 59.0 °F 57.2 °F 94% 30.20 in 10.0 mi Calm Calm - N/A   Mostly Cloudy
4:33 AM 60.8 °F 59.0 °F 94% 30.20 in 10.0 mi Calm Calm - N/A   Mostly Cloudy
4:38 AM 60.8 °F 57.2 °F 88% 30.20 in 10.0 mi Calm Calm - N/A   Scattered Clouds
4:58 AM 61.0 °F 58.6 °F 92% 30.22 in 10.0 mi Calm Calm - N/A   Scattered Clouds
5:03 AM 60.8 °F 59.0 °F 94% 30.22 in 10.0 mi Calm Calm - N/A   Mostly Cloudy
5:23 AM 60.8 °F 59.0 °F 94% 30.22 in 9.0 mi SSE 2.3 mph - N/A   Mostly Cloudy
5:28 AM 60.8 °F 59.0 °F 94% 30.22 in 9.0 mi SE 3.5 mph - N/A   Mostly Cloudy
5:33 AM 60.8 °F 57.2 °F 88% 30.22 in 9.0 mi SSE 2.3 mph - N/A   Mostly Cloudy
5:58 AM 61.9 °F 59.0 °F 90% 30.24 in 6.0 mi Calm Calm - N/A   Mostly Cloudy
6:03 AM 60.8 °F 59.0 °F 94% 30.23 in 4.0 mi Calm Calm - N/A   Scattered Clouds
6:58 AM 62.1 °F 59.2 °F 90% 30.25 in 10.0 mi Calm Calm - N/A   Partly Cloudy
7:58 AM 68.0 °F 59.5 °F 74% 30.26 in 10.0 mi SE 4.6 mph - N/A   Clear
8:58 AM 71.4 °F 58.6 °F 64% 30.28 in 10.0 mi Variable 4.6 mph - N/A   Partly Cloudy
9:58 AM 72.0 °F 60.6 °F 67% 30.29 in 10.0 mi South 2.3 mph - N/A   Partly Cloudy
10:58 AM 73.0 °F 60.8 °F 65% 30.30 in 10.0 mi Variable 4.6 mph - N/A   Mostly Cloudy
11:58 AM 75.0 °F 63.3 °F 67% 30.29 in 10.0 mi South 5.8 mph - N/A   Mostly Cloudy
12:58 PM 76.8 °F 63.1 °F 63% 30.29 in 10.0 mi ESE 6.9 mph - N/A   Mostly Cloudy
1:58 PM 78.1 °F 62.6 °F 59% 30.27 in 10.0 mi Variable 5.8 mph - N/A   Scattered Clouds
2:58 PM 79.5 °F 63.5 °F 58% 30.27 in 10.0 mi SSE 5.8 mph - N/A   Partly Cloudy
3:58 PM 79.0 °F 61.7 °F 55% 30.26 in 10.0 mi South 9.2 mph - N/A   Clear
4:58 PM 79.7 °F 61.7 °F 54% 30.25 in 10.0 mi South 6.9 mph - N/A   Mostly Cloudy
5:58 PM 78.8 °F 62.4 °F 57% 30.25 in 10.0 mi SE 6.9 mph - N/A   Mostly Cloudy
6:58 PM 76.8 °F 61.2 °F 58% 30.26 in 10.0 mi ESE 6.9 mph - N/A   Clear
7:58 PM 73.6 °F 61.0 °F 65% 30.27 in 10.0 mi SE 6.9 mph - N/A   Clear
8:58 PM 70.7 °F 59.2 °F 67% 30.27 in 10.0 mi SE 5.8 mph - N/A   Clear
9:58 PM 69.4 °F 57.4 °F 65% 30.28 in 10.0 mi SSE 5.8 mph - N/A   Clear
10:58 PM 67.1 °F 57.6 °F 71% 30.29 in 10.0 mi SSE 3.5 mph - N/A   Clear
11:58 PM 62.2 °F 57.7 °F 85% 30.29 in 10.0 mi Calm Calm - N/A   Clear